Change the Weather History Date:

Saturday, November 3, 2012

  Actual Average (KJGG) Record (KJGG)
Temperature  
Mean Temperature 42 °F -  
Max Temperature 55 °F 69 °F 84 °F (1974)
Min Temperature 30 °F 46 °F 29 °F (1980)
Degree Days  
Heating Degree Days 23    
Moisture  
Dew Point 32 °F    
Average Humidity 75    
Maximum Humidity 93    
Minimum Humidity 41    
Precipitation  
Precipitation 0.00 in - - ()
Sea Level Pressure  
Sea Level Pressure 30.04 in    
Wind  
Wind Speed 1 mph (North)    
Max Wind Speed 7 mph    
Max Gust Speed 16 mph    
Visibility 10 miles    
Events      
Averages and records for this station are not official NWS values.
T = Trace of Precipitation, MM = Missing Value Source: NWS Daily Summary

Daily Weather History Graph

Daily Weather History Graph

Search for Another Location

Airport or City:

Trip Planner

Search our weather history database for the weather conditions in past years. The results will help you decide how hot, cold, wet, or windy it might be!

Date:

Astronomy

Nov. 03, 2012 Rise Set
Actual Time 7:34 AM EDT 6:08 PM EDT
Civil Twilight 7:07 AM EDT 6:35 PM EDT
Nautical Twilight 6:36 AM EDT 7:05 PM EDT
Astronomical Twilight 6:06 AM EDT 7:36 PM EDT
Moon 9:49 PM EDT (11/3) 11:34 AM EDT (11/3)
Length of Visible Light 11h 27m
Length of Day
10h 33m
Waning Gibbous, 80% of the Moon is Illuminated
Nov 3
Waning Gibbous
Nov 6
Last Quarter
Nov 13
New
Nov 20
First Quarter
Nov 28
Full

Hourly Weather History & Observations

Time (EDT) Temp. Windchill Dew Point Humidity Pressure Visibility Wind Dir Wind Speed Gust Speed Precip Events Conditions
12:54 AM 33.1 °F - 30.9 °F 92% 29.97 in 10.0 mi Calm Calm - N/A   Clear
1:54 AM 32.0 °F - 30.0 °F 92% 29.98 in 9.0 mi Calm Calm - N/A   Clear
2:54 AM 30.9 °F - 28.0 °F 89% 29.98 in 10.0 mi Calm Calm - N/A   Clear
3:54 AM 30.9 °F - 28.9 °F 92% 29.98 in 10.0 mi Calm Calm - N/A   Clear
4:54 AM 30.9 °F - 28.0 °F 89% 29.99 in 9.0 mi Calm Calm - N/A   Clear
5:54 AM 30.9 °F - 28.0 °F 89% 30.01 in 9.0 mi Calm Calm - N/A   Clear
6:54 AM 30.0 °F - 27.0 °F 88% 30.03 in 10.0 mi Calm Calm - N/A   Clear
7:54 AM 32.0 °F - 28.0 °F 85% 30.05 in 9.0 mi Calm Calm - N/A   Clear
8:54 AM 37.0 °F - 32.0 °F 82% 30.08 in 10.0 mi Calm Calm - N/A   Clear
9:54 AM 46.0 °F 43.9 °F 35.1 °F 66% 30.07 in 10.0 mi Variable 4.6 mph - N/A   Partly Cloudy
10:54 AM 46.0 °F 42.5 °F 32.0 °F 58% 30.07 in 10.0 mi North 6.9 mph - N/A   Overcast
11:54 AM 48.9 °F - 32.0 °F 52% 30.07 in 10.0 mi Variable 3.5 mph - N/A   Partly Cloudy
12:54 PM 48.9 °F - 30.9 °F 50% 30.06 in 10.0 mi Variable 4.6 mph - N/A   Overcast
1:54 PM 50.0 °F - 30.0 °F 46% 30.05 in 10.0 mi Variable 4.6 mph 16.1 mph N/A   Overcast
2:54 PM 51.1 °F - 30.9 °F 46% 30.03 in 10.0 mi Variable 6.9 mph - N/A   Scattered Clouds
3:54 PM 54.0 °F - 30.9 °F 41% 30.03 in 10.0 mi Variable 3.5 mph - N/A   Clear
4:54 PM 54.0 °F - 30.9 °F 41% 30.03 in 10.0 mi NNW 3.5 mph - N/A   Clear
5:54 PM 48.9 °F - 37.0 °F 64% 30.04 in 10.0 mi Calm Calm - N/A   Clear
6:54 PM 42.1 °F - 37.0 °F 82% 30.06 in 10.0 mi Calm Calm - N/A   Clear
7:54 PM 37.9 °F - 36.0 °F 93% 30.07 in 10.0 mi Calm Calm - N/A   Clear
8:54 PM 37.0 °F - 34.0 °F 89% 30.09 in 10.0 mi Calm Calm - N/A   Clear
9:54 PM 37.0 °F - 34.0 °F 89% 30.10 in 10.0 mi Calm Calm - N/A   Clear
10:54 PM 37.0 °F - 34.0 °F 89% 30.11 in 10.0 mi Calm Calm - N/A   Clear
11:54 PM 39.0 °F - 36.0 °F 89% 30.12 in 10.0 mi Calm Calm - N/A   Overcast